Location: Cañada de la Miga
(34.7595°N, 106.2317°W)
Time: 11:34:39
(UTC+00:00)

Transit 4A - Pass Details

Date: 10 December 2021
Orbit: 863 x 981 km, 66.8° (Epoch: 26 January)

Event Time Altitude Azimuth Distance (km) Brightness Sun altitude
Rises 01:57:06 0° 244° (WSW) 3,453 12.2 -24.6°
Reaches altitude 10° 02:00:08 10° 260° (W) 2,532 11.2 -25.2°
Maximum altitude 02:04:35 22° 309° (NW) 1,851 9.8 -26.1°
Drops below altitude 10° 02:09:08 10° 359° (N) 2,596 10.1 -27.0°
Enters shadow 02:09:19 - 0° (N) 2,643 10.2 -27.1°
